WMT718 LRIA-EGGW

Flight info

Callsign WMT718
Flight time 3h 6m
Altitude 38000
Route ARPIG P133 TOMUC DCT HUMOR DCT ICJAV DCT REPTO DCT SOMET DCT KEKED DCT HAFAF DCT HDO DCT NOGRO M40 RINIS
Aircraft A320/M-SDE3FGHIRWY/LB1

Departure

Time 2026-04-10 04:06
Airport Iaşi International Airport (LRIA)

Arrival

Time 2026-04-10 07:13
Airport London Luton Airport (EGGW)
Time Latitude Longitude Altitude Speed Heading
2026-04-10 03:47 47.17606 27.61925 369 ft 0 kts 274°
2026-04-10 03:59 47.17606 27.61954 368 ft 4 kts 254°
2026-04-10 03:59 47.17619 27.61985 368 ft 4 kts 207°
2026-04-10 03:59 47.17642 27.61991 368 ft 3 kts 156°
2026-04-10 04:00 47.17649 27.61987 368 ft 0 kts 154°
2026-04-10 04:02 47.17635 27.61997 368 ft 4 kts 154°
2026-04-10 04:02 47.17598 27.62024 368 ft 8 kts 154°
2026-04-10 04:03 47.17538 27.62066 368 ft 11 kts 154°
2026-04-10 04:03 47.17459 27.62133 368 ft 15 kts 148°
2026-04-10 04:03 47.17361 27.62221 368 ft 18 kts 148°
2026-04-10 04:03 47.17263 27.62357 358 ft 22 kts 95°
2026-04-10 04:04 47.17308 27.62478 356 ft 12 kts 62°
2026-04-10 04:04 47.17358 27.62631 349 ft 21 kts 83°
2026-04-10 04:04 47.17245 27.62790 336 ft 26 kts 149°
2026-04-10 04:04 47.17142 27.62940 329 ft 7 kts 165°
2026-04-10 04:05 47.17128 27.62902 330 ft 5 kts 281°
2026-04-10 04:05 47.17162 27.62864 330 ft 12 kts 328°
2026-04-10 04:05 47.17444 27.62608 352 ft 84 kts 329°
2026-04-10 04:05 47.18125 27.61999 377 ft 142 kts 328°
2026-04-10 04:06 47.19026 27.61200 834 ft 154 kts 329°
2026-04-10 04:06 47.19969 27.60445 1645 ft 154 kts 334°
2026-04-10 04:06 47.20988 27.59700 2141 ft 170 kts 335°
2026-04-10 04:06 47.22120 27.58879 2374 ft 192 kts 335°
2026-04-10 04:07 47.23372 27.57945 2644 ft 215 kts 330°
2026-04-10 04:07 47.24390 27.56289 3282 ft 228 kts 297°
2026-04-10 04:07 47.25024 27.54132 4120 ft 230 kts 297°
2026-04-10 04:07 47.25716 27.51990 4955 ft 233 kts 298°
2026-04-10 04:08 47.26453 27.49849 5771 ft 236 kts 299°
2026-04-10 04:08 47.27220 27.47687 6576 ft 240 kts 300°
2026-04-10 04:08 47.28007 27.45510 7345 ft 243 kts 300°
2026-04-10 04:08 47.28816 27.43293 8152 ft 246 kts 299°
2026-04-10 04:09 47.29634 27.41055 8922 ft 250 kts 298°
2026-04-10 04:09 47.30434 27.38744 9533 ft 262 kts 290°
2026-04-10 04:09 47.30891 27.36066 10002 ft 275 kts 282°
2026-04-10 04:09 47.31305 27.33234 10372 ft 292 kts 282°
2026-04-10 04:10 47.31747 27.30182 10552 ft 315 kts 282°
2026-04-10 04:10 47.32211 27.26964 11018 ft 324 kts 283°
2026-04-10 04:10 47.32675 27.23727 11651 ft 329 kts 283°
2026-04-10 04:10 47.33151 27.20408 12301 ft 333 kts 283°
2026-04-10 04:11 47.33635 27.17041 12958 ft 337 kts 283°
2026-04-10 04:11 47.34123 27.13639 13601 ft 342 kts 283°
2026-04-10 04:11 47.34617 27.10189 14213 ft 345 kts 283°
2026-04-10 04:11 47.35116 27.06695 14797 ft 349 kts 283°
2026-04-10 04:12 47.35618 27.03183 15370 ft 352 kts 283°
2026-04-10 04:12 47.36125 26.99631 15945 ft 355 kts 283°
2026-04-10 04:12 47.36634 26.96053 16518 ft 357 kts 284°
2026-04-10 04:12 47.37145 26.92435 17103 ft 360 kts 284°
2026-04-10 04:13 47.37660 26.88793 17686 ft 364 kts 284°
2026-04-10 04:13 47.38177 26.85122 18273 ft 367 kts 284°
2026-04-10 04:13 47.38694 26.81460 18789 ft 370 kts 284°
2026-04-10 04:13 47.39222 26.77718 19336 ft 372 kts 284°
2026-04-10 04:14 47.39747 26.73965 19895 ft 375 kts 284°
2026-04-10 04:14 47.40275 26.70178 20447 ft 377 kts 284°
2026-04-10 04:14 47.40807 26.66364 20986 ft 379 kts 284°
2026-04-10 04:14 47.41343 26.62536 21518 ft 382 kts 284°
2026-04-10 04:15 47.41881 26.58675 22030 ft 384 kts 284°
2026-04-10 04:15 47.42419 26.54791 22537 ft 387 kts 284°
2026-04-10 04:15 47.42958 26.50876 23035 ft 389 kts 284°
2026-04-10 04:15 47.43495 26.46987 23514 ft 392 kts 284°
2026-04-10 04:16 47.44047 26.42969 23948 ft 394 kts 284°
2026-04-10 04:16 47.45132 26.35029 24708 ft 399 kts 284°
2026-04-10 04:16 47.45681 26.30995 25098 ft 402 kts 283°
2026-04-10 04:17 47.46231 26.26925 25458 ft 404 kts 283°
2026-04-10 04:17 47.46784 26.22835 25834 ft 406 kts 283°
2026-04-10 04:17 47.47341 26.18723 26193 ft 409 kts 283°
2026-04-10 04:17 47.47898 26.14594 26553 ft 411 kts 283°
2026-04-10 04:18 47.48457 26.10433 26898 ft 414 kts 283°
2026-04-10 04:18 47.49017 26.06242 27245 ft 416 kts 283°
2026-04-10 04:18 47.49578 26.02023 27590 ft 418 kts 283°
2026-04-10 04:18 47.50139 25.97791 27929 ft 420 kts 283°
2026-04-10 04:19 47.50700 25.93536 28295 ft 423 kts 283°
2026-04-10 04:19 47.51263 25.89288 28633 ft 425 kts 283°
2026-04-10 04:19 47.51835 25.84984 28998 ft 427 kts 283°
2026-04-10 04:19 47.52405 25.80663 29339 ft 429 kts 283°
2026-04-10 04:20 47.52971 25.76317 29671 ft 431 kts 283°
2026-04-10 04:20 47.53535 25.71947 30086 ft 431 kts 283°
2026-04-10 04:20 47.54097 25.67592 30519 ft 429 kts 283°
2026-04-10 04:20 47.54656 25.63254 30900 ft 429 kts 283°
2026-04-10 04:21 47.55216 25.58907 31243 ft 429 kts 283°
2026-04-10 04:21 47.55773 25.54578 31604 ft 429 kts 283°
2026-04-10 04:21 47.56332 25.50238 31978 ft 428 kts 283°
2026-04-10 04:21 47.56890 25.45895 32349 ft 428 kts 283°
2026-04-10 04:22 47.57444 25.41568 32729 ft 428 kts 284°
2026-04-10 04:22 47.57995 25.37222 33098 ft 428 kts 283°
2026-04-10 04:22 47.58534 25.32943 33467 ft 428 kts 284°
2026-04-10 04:22 47.59083 25.28559 33855 ft 427 kts 284°
2026-04-10 04:23 47.59619 25.24274 34225 ft 427 kts 284°
2026-04-10 04:23 47.60160 25.19954 34512 ft 427 kts 284°
2026-04-10 04:23 47.60700 25.15623 34797 ft 427 kts 284°
2026-04-10 04:23 47.61238 25.11299 35061 ft 426 kts 284°
2026-04-10 04:24 47.61773 25.06975 35314 ft 426 kts 284°
2026-04-10 04:24 47.62308 25.02647 35561 ft 426 kts 284°
2026-04-10 04:24 47.62842 24.98313 35817 ft 426 kts 284°
2026-04-10 04:24 47.63373 24.93983 36077 ft 426 kts 284°
2026-04-10 04:25 47.63793 24.89624 36319 ft 429 kts 277°
2026-04-10 04:25 47.63845 24.85188 36520 ft 431 kts 274°
2026-04-10 04:25 47.63849 24.80740 36745 ft 431 kts 274°
2026-04-10 04:25 47.63852 24.76278 36967 ft 431 kts 274°
2026-04-10 04:26 47.63852 24.71825 37175 ft 431 kts 274°
2026-04-10 04:26 47.63851 24.67380 37391 ft 431 kts 274°
2026-04-10 04:26 47.63850 24.62976 37612 ft 431 kts 274°
2026-04-10 04:26 47.63847 24.58533 37825 ft 431 kts 274°
2026-04-10 04:27 47.63843 24.54079 38027 ft 431 kts 274°
2026-04-10 04:27 47.63837 24.49628 38168 ft 432 kts 274°
2026-04-10 04:27 47.63829 24.45163 38194 ft 432 kts 274°
2026-04-10 04:28 47.63806 24.36243 38188 ft 432 kts 274°
2026-04-10 04:28 47.63780 24.28844 38190 ft 432 kts 274°
2026-04-10 04:29 47.63749 24.19927 38191 ft 431 kts 274°
2026-04-10 04:29 47.63703 24.11021 38188 ft 431 kts 274°
2026-04-10 04:30 47.63650 24.02121 38189 ft 431 kts 274°
2026-04-10 04:30 47.64122 23.93330 38187 ft 427 kts 281°
2026-04-10 04:31 47.64756 23.84624 38180 ft 427 kts 281°
2026-04-10 04:31 47.65382 23.75860 38172 ft 427 kts 280°
2026-04-10 04:32 47.66001 23.67101 38165 ft 427 kts 280°
2026-04-10 04:32 47.66608 23.58338 38155 ft 426 kts 280°
2026-04-10 04:33 47.67205 23.49585 38163 ft 426 kts 280°
2026-04-10 04:33 47.67801 23.40838 38156 ft 425 kts 280°
2026-04-10 04:34 47.68387 23.32102 38157 ft 425 kts 280°
2026-04-10 04:34 47.68968 23.23364 38165 ft 425 kts 280°
2026-04-10 04:35 47.70295 23.14968 38163 ft 413 kts 298°
2026-04-10 04:35 47.73241 23.07812 38157 ft 408 kts 308°
2026-04-10 04:36 47.76444 23.00835 38153 ft 408 kts 307°
2026-04-10 04:36 47.79624 22.93840 38152 ft 408 kts 307°
2026-04-10 04:37 47.82806 22.86817 38156 ft 408 kts 307°
2026-04-10 04:37 47.85986 22.79801 38160 ft 408 kts 307°
2026-04-10 04:38 47.89162 22.72760 38164 ft 408 kts 307°
2026-04-10 04:38 47.92319 22.65766 38165 ft 408 kts 307°
2026-04-10 04:39 47.95485 22.58725 38170 ft 409 kts 307°
2026-04-10 04:39 47.98647 22.51665 38171 ft 409 kts 307°
2026-04-10 04:40 48.01811 22.44593 38170 ft 409 kts 307°
2026-04-10 04:40 48.04969 22.37523 38168 ft 409 kts 307°
2026-04-10 04:41 48.08117 22.30452 38167 ft 409 kts 307°
2026-04-10 04:41 48.11265 22.23349 38170 ft 409 kts 307°
2026-04-10 04:42 48.14405 22.16246 38168 ft 409 kts 307°
2026-04-10 04:42 48.17531 22.09178 38171 ft 409 kts 307°
2026-04-10 04:43 48.20676 22.02045 38173 ft 409 kts 307°
2026-04-10 04:43 48.23809 21.94903 38165 ft 409 kts 307°
2026-04-10 04:44 48.26948 21.87754 38166 ft 410 kts 307°
2026-04-10 04:44 48.30077 21.80592 38171 ft 410 kts 307°
2026-04-10 04:45 48.33198 21.73418 38167 ft 410 kts 307°
2026-04-10 04:45 48.36313 21.66240 38166 ft 410 kts 307°
2026-04-10 04:46 48.39410 21.59101 38172 ft 410 kts 307°
2026-04-10 04:46 48.42531 21.51881 38173 ft 409 kts 307°
2026-04-10 04:47 48.45640 21.44674 38176 ft 409 kts 307°
2026-04-10 04:47 48.48723 21.37511 38178 ft 409 kts 307°
2026-04-10 04:48 48.51806 21.30308 38190 ft 409 kts 306°
2026-04-10 04:48 48.54733 21.22901 38182 ft 410 kts 303°
2026-04-10 04:49 48.57459 21.15350 38196 ft 410 kts 303°
2026-04-10 04:49 48.60178 21.07773 38189 ft 409 kts 303°
2026-04-10 04:50 48.62904 21.00295 38193 ft 408 kts 304°
2026-04-10 04:50 48.65648 20.92795 38191 ft 407 kts 304°
2026-04-10 04:51 48.68377 20.85310 38192 ft 406 kts 304°
2026-04-10 04:51 48.71096 20.77834 38195 ft 405 kts 304°
2026-04-10 04:52 48.73808 20.70345 38190 ft 404 kts 304°
2026-04-10 04:52 48.76499 20.62887 38191 ft 403 kts 303°
2026-04-10 04:53 48.79186 20.55403 38193 ft 403 kts 303°
2026-04-10 04:53 48.81865 20.47944 38174 ft 402 kts 303°
2026-04-10 04:54 48.84517 20.40530 38164 ft 401 kts 303°
2026-04-10 04:54 48.87181 20.33069 38156 ft 401 kts 303°
2026-04-10 04:55 48.89836 20.25611 38143 ft 401 kts 303°
2026-04-10 04:55 48.92484 20.18150 38134 ft 401 kts 303°
2026-04-10 04:56 48.95133 20.10667 38132 ft 400 kts 303°
2026-04-10 04:56 48.97772 20.03183 38130 ft 400 kts 303°
2026-04-10 04:57 49.00389 19.95736 38136 ft 400 kts 303°
2026-04-10 04:57 49.03024 19.88234 38143 ft 400 kts 303°
2026-04-10 04:58 49.05650 19.80735 38153 ft 401 kts 303°
2026-04-10 04:58 49.08267 19.73224 38161 ft 401 kts 303°
2026-04-10 04:59 49.10865 19.65748 38171 ft 401 kts 303°
2026-04-10 04:59 49.13484 19.58203 38168 ft 401 kts 303°
2026-04-10 05:00 49.16093 19.50650 38172 ft 401 kts 303°
2026-04-10 05:00 49.18696 19.43095 38179 ft 402 kts 303°
2026-04-10 05:01 49.20875 19.36759 38178 ft 402 kts 303°
2026-04-10 05:01 49.23455 19.29233 38172 ft 402 kts 303°
2026-04-10 05:02 49.26051 19.21651 38177 ft 401 kts 303°
2026-04-10 05:02 49.28632 19.14071 38170 ft 401 kts 303°
2026-04-10 05:03 49.31207 19.06479 38174 ft 401 kts 303°
2026-04-10 05:03 49.33783 18.98876 38170 ft 401 kts 303°
2026-04-10 05:04 49.36347 18.91295 38169 ft 400 kts 303°
2026-04-10 05:04 49.38905 18.83709 38168 ft 400 kts 304°
2026-04-10 05:05 49.41456 18.76112 38171 ft 399 kts 303°
2026-04-10 05:05 49.43977 18.68561 38182 ft 399 kts 303°
2026-04-10 05:06 49.46504 18.60970 38175 ft 399 kts 303°
2026-04-10 05:06 49.49046 18.53337 38172 ft 398 kts 303°
2026-04-10 05:07 49.51564 18.45742 38172 ft 398 kts 303°
2026-04-10 05:07 49.54060 18.38193 38174 ft 398 kts 303°
2026-04-10 05:08 49.56573 18.30591 38172 ft 398 kts 303°
2026-04-10 05:08 49.59074 18.22975 38175 ft 398 kts 303°
2026-04-10 05:09 49.61587 18.15309 38176 ft 398 kts 303°
2026-04-10 05:09 49.65309 18.03923 38180 ft 397 kts 303°
2026-04-10 05:10 49.67789 17.96287 38179 ft 397 kts 303°
2026-04-10 05:10 49.70266 17.88653 38174 ft 397 kts 303°
2026-04-10 05:11 49.72740 17.80998 38177 ft 397 kts 303°
2026-04-10 05:11 49.75198 17.73361 38177 ft 397 kts 303°
2026-04-10 05:12 49.77654 17.65710 38178 ft 396 kts 303°
2026-04-10 05:12 49.80106 17.58060 38170 ft 396 kts 303°
2026-04-10 05:13 49.82551 17.50410 38173 ft 396 kts 302°
2026-04-10 05:13 49.84992 17.42753 38171 ft 396 kts 302°
2026-04-10 05:14 49.87421 17.35087 38169 ft 396 kts 302°
2026-04-10 05:14 49.89847 17.27417 38171 ft 396 kts 302°
2026-04-10 05:15 49.92268 17.19744 38171 ft 396 kts 302°
2026-04-10 05:15 49.94690 17.12066 38172 ft 396 kts 302°
2026-04-10 05:16 49.97107 17.04362 38172 ft 396 kts 302°
2026-04-10 05:16 49.99515 16.96634 38169 ft 396 kts 302°
2026-04-10 05:17 50.01910 16.88970 38174 ft 397 kts 302°
2026-04-10 05:17 50.04313 16.81234 38170 ft 397 kts 301°
2026-04-10 05:18 50.06727 16.73438 38172 ft 397 kts 301°
2026-04-10 05:18 50.09123 16.65686 38176 ft 398 kts 301°
2026-04-10 05:19 50.11492 16.57954 38168 ft 398 kts 301°
2026-04-10 05:19 50.13876 16.50156 38165 ft 398 kts 301°
2026-04-10 05:20 50.16259 16.42369 38174 ft 398 kts 301°
2026-04-10 05:20 50.18644 16.34564 38183 ft 398 kts 301°
2026-04-10 05:21 50.21015 16.26748 38181 ft 398 kts 301°
2026-04-10 05:21 50.23534 16.19068 38178 ft 394 kts 306°
2026-04-10 05:22 50.26413 16.11757 38183 ft 395 kts 306°
2026-04-10 05:22 50.29291 16.04438 38178 ft 395 kts 306°
2026-04-10 05:23 50.32162 15.97102 38173 ft 395 kts 306°
2026-04-10 05:23 50.35023 15.89760 38170 ft 395 kts 306°
2026-04-10 05:24 50.37864 15.82443 38172 ft 395 kts 306°
2026-04-10 05:24 50.40739 15.75021 38169 ft 395 kts 306°
2026-04-10 05:25 50.43573 15.67689 38163 ft 396 kts 305°
2026-04-10 05:25 50.46430 15.60286 38161 ft 396 kts 305°
2026-04-10 05:26 50.49279 15.52885 38159 ft 396 kts 305°
2026-04-10 05:26 50.52124 15.45464 38157 ft 396 kts 305°
2026-04-10 05:27 50.54952 15.38044 38158 ft 396 kts 305°
2026-04-10 05:27 50.57792 15.30605 38150 ft 396 kts 305°
2026-04-10 05:28 50.60618 15.23164 38150 ft 396 kts 304°
2026-04-10 05:28 50.63442 15.15704 38144 ft 396 kts 304°
2026-04-10 05:29 50.66264 15.08246 38144 ft 396 kts 304°
2026-04-10 05:29 50.69083 15.00773 38138 ft 396 kts 304°
2026-04-10 05:30 50.71895 14.93295 38136 ft 396 kts 304°
2026-04-10 05:30 50.74702 14.85803 38129 ft 396 kts 304°
2026-04-10 05:31 50.77031 14.79562 38133 ft 396 kts 304°
2026-04-10 05:31 50.79829 14.72051 38128 ft 396 kts 304°
2026-04-10 05:32 50.83073 14.63313 38126 ft 396 kts 303°
2026-04-10 05:32 50.85408 14.57000 38119 ft 396 kts 303°
2026-04-10 05:33 50.88192 14.49459 38119 ft 396 kts 303°
2026-04-10 05:33 50.90959 14.41938 38115 ft 396 kts 303°
2026-04-10 05:34 50.93236 14.33953 38112 ft 403 kts 288°
2026-04-10 05:34 50.94468 14.25234 38207 ft 404 kts 286°
2026-04-10 05:35 50.95078 14.20944 38078 ft 401 kts 286°
2026-04-10 05:35 50.95694 14.16637 38066 ft 399 kts 286°
2026-04-10 05:35 50.96917 14.08050 38054 ft 400 kts 286°
2026-04-10 05:36 50.98125 13.99422 38055 ft 400 kts 285°
2026-04-10 05:36 50.99330 13.90791 38065 ft 401 kts 285°
2026-04-10 05:37 51.00529 13.82139 38075 ft 401 kts 285°
2026-04-10 05:37 51.01725 13.73501 38076 ft 400 kts 285°
2026-04-10 05:38 51.02903 13.64900 38075 ft 400 kts 285°
2026-04-10 05:38 51.04075 13.56263 38078 ft 399 kts 285°
2026-04-10 05:39 51.05245 13.47635 38079 ft 399 kts 285°
2026-04-10 05:39 51.06409 13.39008 38075 ft 398 kts 285°
2026-04-10 05:40 51.07553 13.30398 38076 ft 398 kts 284°
2026-04-10 05:40 51.08699 13.21781 38071 ft 397 kts 284°
2026-04-10 05:41 51.09844 13.13183 38072 ft 397 kts 284°
2026-04-10 05:41 51.10974 13.04598 38068 ft 396 kts 284°
2026-04-10 05:42 51.12086 12.96004 38068 ft 396 kts 284°
2026-04-10 05:42 51.13196 12.87415 38071 ft 395 kts 284°
2026-04-10 05:43 51.14300 12.78882 38065 ft 395 kts 284°
2026-04-10 05:43 51.15399 12.70315 38071 ft 394 kts 283°
2026-04-10 05:44 51.16491 12.61757 38070 ft 394 kts 283°
2026-04-10 05:44 51.17576 12.53199 38073 ft 394 kts 283°
2026-04-10 05:45 51.18660 12.44591 38070 ft 393 kts 283°
2026-04-10 05:45 51.19718 12.36095 38072 ft 393 kts 283°
2026-04-10 05:46 51.20781 12.27547 38068 ft 392 kts 283°
2026-04-10 05:46 51.21836 12.19006 38072 ft 392 kts 282°
2026-04-10 05:47 51.22880 12.10478 38074 ft 391 kts 282°
2026-04-10 05:47 51.23919 12.01951 38070 ft 391 kts 282°
2026-04-10 05:48 51.24954 11.93433 38066 ft 390 kts 282°
2026-04-10 05:48 51.25980 11.84925 38059 ft 389 kts 282°
2026-04-10 05:49 51.26987 11.76496 38054 ft 389 kts 281°
2026-04-10 05:49 51.27996 11.68016 38049 ft 388 kts 281°
2026-04-10 05:50 51.28999 11.59536 38045 ft 388 kts 281°
2026-04-10 05:50 51.29990 11.51058 38048 ft 387 kts 281°
2026-04-10 05:51 51.30974 11.42591 38042 ft 388 kts 281°
2026-04-10 05:51 51.31955 11.34100 38043 ft 388 kts 280°
2026-04-10 05:52 51.32935 11.25598 38041 ft 388 kts 280°
2026-04-10 05:52 51.33901 11.17153 38043 ft 388 kts 280°
2026-04-10 05:53 51.34861 11.08661 38042 ft 388 kts 280°
2026-04-10 05:53 51.35819 11.00153 38049 ft 388 kts 279°
2026-04-10 05:54 51.36770 10.91646 38044 ft 388 kts 279°
2026-04-10 05:54 51.37716 10.83136 38043 ft 388 kts 279°
2026-04-10 05:55 51.38648 10.74666 38044 ft 388 kts 279°
2026-04-10 05:55 51.39584 10.66158 38048 ft 388 kts 279°
2026-04-10 05:56 51.40507 10.57641 38046 ft 388 kts 279°
2026-04-10 05:56 51.41427 10.49124 38047 ft 388 kts 279°
2026-04-10 05:57 51.42343 10.40596 38047 ft 388 kts 279°
2026-04-10 05:57 51.43256 10.32054 38043 ft 388 kts 279°
2026-04-10 05:58 51.44164 10.23512 38048 ft 388 kts 278°
2026-04-10 05:58 51.45061 10.14938 38049 ft 389 kts 278°
2026-04-10 05:59 51.45938 10.06441 38049 ft 389 kts 278°
2026-04-10 05:59 51.46819 9.97879 38054 ft 389 kts 278°
2026-04-10 06:00 51.47700 9.89292 38058 ft 389 kts 278°
2026-04-10 06:00 51.48580 9.80689 38061 ft 390 kts 278°
2026-04-10 06:01 51.49451 9.72098 38064 ft 390 kts 278°
2026-04-10 06:01 51.50311 9.63535 38069 ft 390 kts 278°
2026-04-10 06:02 51.51172 9.54908 38076 ft 391 kts 278°
2026-04-10 06:02 51.52020 9.46284 38077 ft 391 kts 278°
2026-04-10 06:03 51.52863 9.37650 38078 ft 391 kts 278°
2026-04-10 06:03 51.53706 9.28999 38080 ft 391 kts 278°
2026-04-10 06:04 51.54405 9.21812 38075 ft 392 kts 278°
2026-04-10 06:04 51.55236 9.13158 38073 ft 392 kts 278°
2026-04-10 06:05 51.56056 9.04497 38078 ft 392 kts 278°
2026-04-10 06:05 51.56874 8.95823 38096 ft 392 kts 278°
2026-04-10 06:06 51.58094 8.82815 38097 ft 392 kts 278°
2026-04-10 06:07 51.58896 8.74128 38100 ft 392 kts 278°
2026-04-10 06:07 51.59685 8.65503 38101 ft 392 kts 278°
2026-04-10 06:08 51.60471 8.56811 38105 ft 392 kts 278°
2026-04-10 06:08 51.61252 8.48104 38103 ft 393 kts 278°
2026-04-10 06:09 51.62033 8.39399 38106 ft 393 kts 278°
2026-04-10 06:09 51.62809 8.30675 38103 ft 393 kts 278°
2026-04-10 06:10 51.63571 8.21952 38106 ft 394 kts 277°
2026-04-10 06:10 51.64326 8.13199 38113 ft 394 kts 277°
2026-04-10 06:11 51.65080 8.04444 38126 ft 394 kts 277°
2026-04-10 06:11 51.65831 7.95722 38135 ft 395 kts 277°
2026-04-10 06:12 51.66581 7.86932 38141 ft 395 kts 277°
2026-04-10 06:12 51.67317 7.78153 38147 ft 395 kts 277°
2026-04-10 06:13 51.68046 7.69371 38154 ft 395 kts 277°
2026-04-10 06:13 51.68773 7.60566 38151 ft 396 kts 277°
2026-04-10 06:14 51.69485 7.51816 38151 ft 396 kts 277°
2026-04-10 06:14 51.70194 7.43004 38153 ft 396 kts 277°
2026-04-10 06:15 51.70901 7.34201 38153 ft 395 kts 277°
2026-04-10 06:15 51.71605 7.25388 38155 ft 395 kts 277°
2026-04-10 06:16 51.72291 7.16585 38154 ft 395 kts 277°
2026-04-10 06:16 51.72967 7.07838 38150 ft 394 kts 277°
2026-04-10 06:17 51.73643 6.99046 38153 ft 394 kts 277°
2026-04-10 06:17 51.74321 6.90247 38158 ft 394 kts 278°
2026-04-10 06:18 51.74982 6.81478 38162 ft 393 kts 277°
2026-04-10 06:18 51.75628 6.72756 38160 ft 393 kts 277°
2026-04-10 06:19 51.76274 6.63997 38163 ft 392 kts 278°
2026-04-10 06:19 51.76921 6.55263 38169 ft 392 kts 278°
2026-04-10 06:20 51.77548 6.46511 38175 ft 391 kts 277°
2026-04-10 06:20 51.78171 6.37778 38177 ft 391 kts 278°
2026-04-10 06:21 51.78795 6.29045 38182 ft 391 kts 278°
2026-04-10 06:21 51.79413 6.20306 38184 ft 390 kts 278°
2026-04-10 06:22 51.80011 6.11596 38184 ft 390 kts 277°
2026-04-10 06:22 51.80602 6.02892 38182 ft 389 kts 277°
2026-04-10 06:23 51.81187 5.94239 38184 ft 389 kts 278°
2026-04-10 06:23 51.81772 5.85541 38183 ft 388 kts 278°
2026-04-10 06:24 51.82354 5.76865 38186 ft 388 kts 277°
2026-04-10 06:24 51.82925 5.68175 38190 ft 388 kts 277°
2026-04-10 06:25 51.83481 5.59497 38186 ft 387 kts 277°
2026-04-10 06:25 51.84034 5.50836 38185 ft 387 kts 277°
2026-04-10 06:26 51.84584 5.42233 38180 ft 387 kts 277°
2026-04-10 06:26 51.85128 5.33563 38181 ft 386 kts 277°
2026-04-10 06:27 51.85662 5.24910 38181 ft 386 kts 277°
2026-04-10 06:27 51.86192 5.16246 38179 ft 386 kts 277°
2026-04-10 06:28 51.86708 5.07610 38185 ft 385 kts 277°
2026-04-10 06:28 51.87221 4.99026 38187 ft 385 kts 277°
2026-04-10 06:29 51.87731 4.90401 38187 ft 385 kts 277°
2026-04-10 06:29 51.88227 4.81770 38189 ft 384 kts 277°
2026-04-10 06:30 51.88720 4.73149 38192 ft 384 kts 277°
2026-04-10 06:30 51.89206 4.64536 38191 ft 384 kts 277°
2026-04-10 06:31 51.89693 4.55937 38193 ft 383 kts 277°
2026-04-10 06:31 51.90165 4.47329 38190 ft 383 kts 277°
2026-04-10 06:32 51.90628 4.38780 38187 ft 382 kts 277°
2026-04-10 06:32 51.91088 4.30181 38190 ft 382 kts 277°
2026-04-10 06:33 51.91547 4.21617 38189 ft 381 kts 277°
2026-04-10 06:33 51.91997 4.13049 38185 ft 381 kts 277°
2026-04-10 06:34 51.92433 4.04491 38182 ft 381 kts 277°
2026-04-10 06:34 51.92864 3.95947 38184 ft 380 kts 277°
2026-04-10 06:35 51.93293 3.87399 38181 ft 380 kts 277°
2026-04-10 06:35 51.93712 3.78882 37617 ft 381 kts 277°
2026-04-10 06:35 51.93918 3.74623 36825 ft 383 kts 277°
2026-04-10 06:36 51.94125 3.70321 36074 ft 380 kts 277°
2026-04-10 06:36 51.94328 3.66072 35070 ft 376 kts 278°
2026-04-10 06:36 51.94525 3.61870 34068 ft 371 kts 278°
2026-04-10 06:36 51.94656 3.59069 33387 ft 365 kts 278°
2026-04-10 06:37 51.94905 3.53710 32188 ft 354 kts 277°
2026-04-10 06:37 51.95027 3.51058 31608 ft 348 kts 277°
2026-04-10 06:37 51.95204 3.47230 30778 ft 339 kts 276°
2026-04-10 06:37 51.95378 3.43458 29896 ft 331 kts 276°
2026-04-10 06:38 51.95548 3.39757 28887 ft 325 kts 276°
2026-04-10 06:38 51.95715 3.36121 27870 ft 320 kts 276°
2026-04-10 06:38 51.95878 3.32549 26920 ft 317 kts 275°
2026-04-10 06:38 51.96037 3.28993 25992 ft 313 kts 275°
2026-04-10 06:39 51.96190 3.25493 25126 ft 310 kts 275°
2026-04-10 06:39 51.96342 3.22009 24294 ft 308 kts 275°
2026-04-10 06:39 51.96495 3.18553 23455 ft 305 kts 274°
2026-04-10 06:39 51.96429 3.15121 22468 ft 305 kts 266°
2026-04-10 06:40 51.96206 3.11699 21479 ft 304 kts 266°
2026-04-10 06:40 51.95986 3.08321 20520 ft 304 kts 266°
2026-04-10 06:40 51.95764 3.04910 19562 ft 304 kts 266°
2026-04-10 06:40 51.95543 3.01501 18645 ft 304 kts 266°
2026-04-10 06:41 51.95322 2.98082 17786 ft 301 kts 266°
2026-04-10 06:41 51.95107 2.94834 17653 ft 278 kts 266°
2026-04-10 06:41 51.94904 2.91852 17583 ft 255 kts 266°
2026-04-10 06:41 51.94714 2.89033 17527 ft 254 kts 267°
2026-04-10 06:42 51.94526 2.86142 17467 ft 259 kts 266°
2026-04-10 06:42 51.94337 2.83231 17407 ft 261 kts 267°
2026-04-10 06:42 51.94145 2.80296 17345 ft 260 kts 266°
2026-04-10 06:42 51.93951 2.77409 17286 ft 260 kts 266°
2026-04-10 06:43 51.93748 2.74458 17221 ft 260 kts 266°
2026-04-10 06:43 51.93551 2.71586 17155 ft 260 kts 266°
2026-04-10 06:43 51.93357 2.68679 17100 ft 259 kts 266°
2026-04-10 06:43 51.93162 2.65773 17042 ft 259 kts 266°
2026-04-10 06:44 51.92964 2.62863 16979 ft 259 kts 266°
2026-04-10 06:44 51.92767 2.59961 16923 ft 259 kts 266°
2026-04-10 06:44 51.92569 2.57069 16861 ft 259 kts 266°
2026-04-10 06:44 51.92367 2.54160 16803 ft 258 kts 267°
2026-04-10 06:45 51.92312 2.51254 16744 ft 257 kts 272°
2026-04-10 06:45 51.92331 2.48360 16684 ft 257 kts 272°
2026-04-10 06:45 51.92370 2.45468 16625 ft 257 kts 273°
2026-04-10 06:45 51.92413 2.42601 16567 ft 257 kts 273°
2026-04-10 06:46 51.92454 2.39709 16507 ft 257 kts 272°
2026-04-10 06:46 51.92491 2.36818 16449 ft 256 kts 272°
2026-04-10 06:46 51.92524 2.33925 16390 ft 256 kts 272°
2026-04-10 06:46 51.92554 2.31034 16332 ft 256 kts 272°
2026-04-10 06:47 51.92581 2.28143 16274 ft 256 kts 272°
2026-04-10 06:47 51.92608 2.25250 16213 ft 256 kts 272°
2026-04-10 06:47 51.92635 2.22357 16156 ft 256 kts 272°
2026-04-10 06:47 51.92662 2.19472 16098 ft 256 kts 272°
2026-04-10 06:48 51.92688 2.16579 16041 ft 256 kts 272°
2026-04-10 06:48 51.92711 2.13698 15982 ft 256 kts 272°
2026-04-10 06:48 51.92732 2.10812 15925 ft 256 kts 272°
2026-04-10 06:48 51.92754 2.07916 15868 ft 256 kts 272°
2026-04-10 06:49 51.92776 2.05032 15812 ft 256 kts 272°
2026-04-10 06:49 51.92797 2.02180 15756 ft 256 kts 272°
2026-04-10 06:49 51.92819 1.99295 15701 ft 256 kts 272°
2026-04-10 06:49 51.92842 1.96404 15642 ft 256 kts 272°
2026-04-10 06:50 51.92865 1.93516 15591 ft 256 kts 272°
2026-04-10 06:50 51.92885 1.90624 15526 ft 256 kts 272°
2026-04-10 06:50 51.92903 1.87727 15475 ft 256 kts 272°
2026-04-10 06:50 51.92919 1.84841 15415 ft 256 kts 271°
2026-04-10 06:51 51.92933 1.81952 15357 ft 256 kts 271°
2026-04-10 06:51 51.92947 1.79057 15302 ft 256 kts 271°
2026-04-10 06:51 51.92963 1.76165 15246 ft 256 kts 271°
2026-04-10 06:51 51.92978 1.73272 15191 ft 257 kts 271°
2026-04-10 06:52 51.92993 1.70409 15134 ft 257 kts 271°
2026-04-10 06:52 51.93008 1.67514 15080 ft 257 kts 271°
2026-04-10 06:52 51.93020 1.64621 15023 ft 257 kts 271°
2026-04-10 06:52 51.93029 1.61722 14968 ft 257 kts 271°
2026-04-10 06:53 51.93039 1.58824 14915 ft 257 kts 271°
2026-04-10 06:53 51.93048 1.55933 14859 ft 257 kts 271°
2026-04-10 06:53 51.93058 1.53038 14803 ft 257 kts 271°
2026-04-10 06:53 51.93067 1.50136 14747 ft 257 kts 271°
2026-04-10 06:54 51.93075 1.47237 14686 ft 257 kts 271°
2026-04-10 06:54 51.93085 1.44330 14637 ft 257 kts 271°
2026-04-10 06:54 51.93093 1.41428 14582 ft 257 kts 271°
2026-04-10 06:54 51.93098 1.38525 14526 ft 257 kts 271°
2026-04-10 06:55 51.93102 1.35651 14470 ft 258 kts 271°
2026-04-10 06:55 51.93108 1.32713 14415 ft 258 kts 271°
2026-04-10 06:55 51.93112 1.29807 14356 ft 258 kts 271°
2026-04-10 06:55 51.93115 1.26931 14302 ft 258 kts 271°
2026-04-10 06:56 51.93119 1.24015 14244 ft 258 kts 271°
2026-04-10 06:56 51.93121 1.21109 14188 ft 258 kts 271°
2026-04-10 06:56 51.93121 1.18192 14128 ft 258 kts 271°
2026-04-10 06:56 51.93120 1.15283 14078 ft 258 kts 271°
2026-04-10 06:57 51.93118 1.12368 14020 ft 259 kts 270°
2026-04-10 06:57 51.93117 1.09516 13965 ft 259 kts 270°
2026-04-10 06:57 51.93116 1.06596 13897 ft 259 kts 270°
2026-04-10 06:57 51.93114 1.03680 13839 ft 258 kts 270°
2026-04-10 06:58 51.93110 1.00770 13775 ft 258 kts 270°
2026-04-10 06:58 51.93103 0.97857 13708 ft 258 kts 270°
2026-04-10 06:58 51.93098 0.94995 13648 ft 257 kts 270°
2026-04-10 06:58 51.93093 0.92087 13588 ft 257 kts 270°
2026-04-10 06:59 51.93085 0.89184 13515 ft 257 kts 270°
2026-04-10 06:59 51.93079 0.86530 13274 ft 256 kts 270°
2026-04-10 06:59 51.93071 0.83659 13002 ft 254 kts 270°
2026-04-10 06:59 51.93062 0.80804 12690 ft 253 kts 270°
2026-04-10 07:00 51.93051 0.77953 12380 ft 251 kts 270°
2026-04-10 07:00 51.93040 0.75122 12068 ft 250 kts 270°
2026-04-10 07:00 51.93030 0.72354 11766 ft 248 kts 270°
2026-04-10 07:00 51.93022 0.69564 11459 ft 247 kts 269°
2026-04-10 07:01 51.93012 0.66792 11153 ft 245 kts 269°
2026-04-10 07:01 51.93002 0.64032 10863 ft 244 kts 269°
2026-04-10 07:01 51.92989 0.61277 10549 ft 243 kts 269°
2026-04-10 07:01 51.92976 0.58541 10255 ft 242 kts 269°
2026-04-10 07:02 51.92963 0.55816 9930 ft 241 kts 269°
2026-04-10 07:02 51.92948 0.53105 9616 ft 240 kts 269°
2026-04-10 07:02 51.92932 0.50412 9309 ft 238 kts 269°
2026-04-10 07:02 51.92915 0.47740 9011 ft 236 kts 269°
2026-04-10 07:03 51.92899 0.45074 8711 ft 235 kts 269°
2026-04-10 07:03 51.92884 0.42431 8416 ft 234 kts 269°
2026-04-10 07:03 51.92868 0.39804 8117 ft 233 kts 269°
2026-04-10 07:03 51.92850 0.37182 7823 ft 232 kts 269°
2026-04-10 07:04 51.92830 0.34579 7532 ft 231 kts 269°
2026-04-10 07:04 51.92811 0.32009 7236 ft 230 kts 269°
2026-04-10 07:04 51.92792 0.29417 6955 ft 230 kts 269°
2026-04-10 07:04 51.92772 0.26835 6661 ft 229 kts 269°
2026-04-10 07:05 51.92753 0.24200 6231 ft 233 kts 270°
2026-04-10 07:05 51.92734 0.21589 5887 ft 235 kts 270°
2026-04-10 07:05 51.92713 0.18940 5565 ft 235 kts 270°
2026-04-10 07:05 51.92693 0.16366 5270 ft 234 kts 270°
2026-04-10 07:06 51.92670 0.13727 4968 ft 233 kts 270°
2026-04-10 07:06 51.92647 0.11101 4723 ft 230 kts 270°
2026-04-10 07:06 51.92622 0.08574 4654 ft 219 kts 270°
2026-04-10 07:06 51.92599 0.06160 4567 ft 208 kts 270°
2026-04-10 07:07 51.92575 0.03866 4486 ft 199 kts 270°
2026-04-10 07:07 51.92553 0.01700 4398 ft 190 kts 271°
2026-04-10 07:07 51.92532 -0.00428 4319 ft 188 kts 271°
2026-04-10 07:07 51.92511 -0.02541 4241 ft 187 kts 271°
2026-04-10 07:08 51.92490 -0.04646 4160 ft 187 kts 271°
2026-04-10 07:08 51.92451 -0.06753 4082 ft 187 kts 265°
2026-04-10 07:08 51.92217 -0.08842 3951 ft 189 kts 259°
2026-04-10 07:09 51.91672 -0.12259 3563 ft 189 kts 257°
2026-04-10 07:09 51.91325 -0.14314 3303 ft 188 kts 257°
2026-04-10 07:09 51.90977 -0.16358 3039 ft 188 kts 257°
2026-04-10 07:09 51.90631 -0.18387 2801 ft 182 kts 258°
2026-04-10 07:10 51.90302 -0.20304 2526 ft 171 kts 258°
2026-04-10 07:10 51.90003 -0.22047 2304 ft 150 kts 259°
2026-04-10 07:10 51.89735 -0.23613 2092 ft 140 kts 259°
2026-04-10 07:10 51.89475 -0.25094 1863 ft 137 kts 259°
2026-04-10 07:11 51.89209 -0.26566 1621 ft 135 kts 260°
2026-04-10 07:11 51.88969 -0.28036 1472 ft 135 kts 259°
2026-04-10 07:11 51.88723 -0.29508 1308 ft 136 kts 258°
2026-04-10 07:11 51.88469 -0.30987 1087 ft 136 kts 257°
2026-04-10 07:12 51.88217 -0.32478 889 ft 139 kts 257°
2026-04-10 07:12 51.87944 -0.33995 729 ft 140 kts 257°
2026-04-10 07:12 51.87689 -0.35525 548 ft 141 kts 257°
2026-04-10 07:12 51.87460 -0.36859 523 ft 89 kts 255°
2026-04-10 07:13 51.87351 -0.37495 522 ft 29 kts 253°
2026-04-10 07:13 51.87331 -0.37671 521 ft 11 kts 293°
2026-04-10 07:13 51.87406 -0.37672 521 ft 13 kts 42°
2026-04-10 07:13 51.87460 -0.37583 522 ft 0 kts 45°
2026-04-10 07:14 51.87470 -0.37567 522 ft 4 kts 45°
2026-04-10 07:14 51.87502 -0.37515 522 ft 10 kts 45°
2026-04-10 07:14 51.87577 -0.37458 522 ft 14 kts
2026-04-10 07:14 51.87681 -0.37523 521 ft 19 kts 313°
2026-04-10 07:15 51.87733 -0.37683 521 ft 0 kts 295°
2026-04-10 07:15 51.87734 -0.37687 521 ft 1 kts 295°
2026-04-10 07:15 51.87742 -0.37714 522 ft 4 kts 295°
2026-04-10 07:16 51.87760 -0.37775 523 ft 9 kts 295°
2026-04-10 07:16 51.87800 -0.37909 523 ft 17 kts 297°
2026-04-10 07:16 51.87904 -0.38015 523 ft 20 kts 356°
2026-04-10 07:16 51.88024 -0.37928 523 ft 11 kts 38°
2026-04-10 07:17 51.88082 -0.37854 523 ft 12 kts 38°
2026-04-10 07:17 51.88151 -0.37745 523 ft 16 kts 54°
2026-04-10 07:17 51.88205 -0.37580 517 ft 19 kts 74°
2026-04-10 07:17 51.88205 -0.37464 516 ft 4 kts 86°
2026-04-10 07:18 51.88208 -0.37442 516 ft 1 kts 73°
2026-04-10 07:18 51.88210 -0.37415 516 ft 4 kts 95°
2026-04-10 07:18 51.88198 -0.37392 516 ft 1 kts 161°
2026-04-10 07:18 51.88190 -0.37387 517 ft 2 kts 159°
2026-04-10 07:19 51.88170 -0.37375 517 ft 3 kts 161°
2026-04-10 07:19 51.88163 -0.37372 517 ft 0 kts 162°